Погода в Измайлово

Россия / Московская область     55°33′48″N   37°38′42″E
темп.,
°C
ветер,
м/с
пор.,
м/с
влажн.,
%
обл.,
%
осадки,
мм/ч
давл.,
гПа
погр.,
м
12 мая, ср
ср1200:00+12юв239587 0.0 102647
03:00+9вюв34928 0.0 102658
06:00+10вюв23905 0.0 1027102
09:00+15в237016 0.0 1026508
12:00+19всв4761100 0.0 10231380
15:00+17всв6117582 2.8 1020548
18:00+14вюв51192100 2.1 1019645
21:00+13юв7139275 6.9 1019781
13 мая, чт
чт1300:00+8ююв379820 0.1 1021201
03:00+7вюв379875 0.1 1021161
06:00+8в499499 0.0 1021265
09:00+13вюв577899 0.0 1020492
12:00+17вюв4665100 0.0 10171363
15:00+13вюв5788100 0.8 1016410
18:00+15ююв478264 0.1 1015789
21:00+11ююв39940 2.7 1016213
14 мая, пт
пт1400:00+9ююз3696100 0.0 1017122
03:00+8ююз229229 0.0 101828
06:00+9юв2388100 0.0 101874
09:00+14юв3579100 0.0 1018405
12:00+19юв467135 0.0 1017923
15:00+20юв5872100 1.5 1015996
18:00+16ссв2392100 9.4 101342
21:00+14в369598 14.6 1012108
15 мая, сб
сб1500:00+14юв3395100 0.4 101249
03:00+15вюв2292100 1.6 101126
06:00+15юв3894100 0.3 1011194
09:00+18ююв587918 0.7 1010447
12:00+21ю6864100 0.0 10101183
15:00+19ююв7980100 1.3 1009879
18:00+19ю610844 1.7 1009617
21:00+15ю4992100 3.9 1009175
16 мая, вс
вс1600:00+13ююз499560 0.2 1010202
03:00+12юз410977 0.2 1011268
06:00+12юз499328 0.0 1012275
09:00+16юз577480 0.0 1013628
12:00+19ююз686048 0.0 10131737
15:00+19юз59629 0.6 10141594
18:00+18зюз476910 0.1 1014556
21:00+14юз22804 0.1 101517